User: anonymous   Login
Location: Unspecified
(0.0000°N, 0.0000°E)
Time: 21:18:44
(UTC+00:00)
Language:

LIBERTAD 1 - Orbit

View from above orbital plane
View from above orbital plane
View from above satellite
View from above satellite

Ground track
Ground track

The orbit data is extracted from the following two-line orbital elements,

1 31128U 07012M   17141.83078773 +.00000137 +00000-0 +40152-4 0  9999
2 31128 098.0801 091.2144 0095465 284.7041 074.3591 14.55842571535597
Epoch (UTC): 21 May 2017 19:56:20
Eccentricity: 0.0095465
inclination: 98.0801°
perigee height: 639 km
apogee height: 774 km
right ascension of ascending node: 91.2144°
argument of perigee: 284.7041°
revolutions per day: 14.55842571
mean anomaly at epoch: 74.3591°
orbit number at epoch: 53559

The dashed part of the orbit path shows where the satellite is in the earth's shadow,  

DLR